Location: Campestrin
(46.4667°N, 11.7167°E)
Time: 11:08:57
(UTC+00:00)

Meteor 1-27 - Pass Details

Date: 18 April 2021
Orbit: 838 x 892 km, 81.2° (Epoch: 07 May)

Event Time Altitude Azimuth Distance (km) Brightness Sun altitude
Exits shadow 20:47:47 51° 178° (S) 1,096 4.4 -23.9°
Maximum altitude 20:49:20 82° 99° (E) 893 4.1 -24.1°
Drops below altitude 10° 20:55:10 10° 13° (NNE) 2,559 7.2 -24.7°
Sets 20:57:39 0° 12° (NNE) 3,507 8.0 -25.0°
